TimeEDT,TemperatureF,Dew PointF,Humidity,Sea Level PressureIn,VisibilityMPH,Wind Direction,Wind SpeedMPH,Gust SpeedMPH,PrecipitationIn,Events,Conditions,WindDirDegrees,DateUTC
12:53 AM,30.9,25.0,79,30.32,10.0,Calm,Calm,-,N/A,,Clear,0,2013-03-29 04:53:00
1:53 AM,30.0,25.0,82,30.32,10.0,Calm,Calm,-,N/A,,Clear,0,2013-03-29 05:53:00
2:53 AM,30.0,24.1,79,30.32,10.0,Calm,Calm,-,N/A,,Clear,0,2013-03-29 06:53:00
3:53 AM,30.9,23.0,72,30.31,10.0,NW,3.5,-,N/A,,Clear,310,2013-03-29 07:53:00
4:53 AM,28.0,21.9,78,30.31,10.0,Calm,Calm,-,N/A,,Clear,0,2013-03-29 08:53:00
5:53 AM,27.0,21.0,78,30.31,10.0,Calm,Calm,-,N/A,,Clear,0,2013-03-29 09:53:00
6:53 AM,25.0,21.0,85,30.31,10.0,Calm,Calm,-,N/A,,Clear,0,2013-03-29 10:53:00
7:53 AM,25.0,21.9,88,30.32,9.0,Calm,Calm,-,N/A,,Clear,0,2013-03-29 11:53:00
8:53 AM,32.0,27.0,82,30.32,10.0,Calm,Calm,-,N/A,,Clear,0,2013-03-29 12:53:00
9:53 AM,39.0,24.1,55,30.33,10.0,Calm,Calm,-,N/A,,Clear,0,2013-03-29 13:53:00
10:53 AM,43.0,19.9,40,30.32,10.0,Variable,5.8,-,N/A,,Clear,0,2013-03-29 14:53:00
11:53 AM,45.0,21.0,39,30.33,10.0,Variable,3.5,-,N/A,,Clear,0,2013-03-29 15:53:00
12:53 PM,46.9,21.0,36,30.31,10.0,Variable,3.5,-,N/A,,Clear,0,2013-03-29 16:53:00
1:53 PM,50.0,21.0,32,30.29,10.0,NW,9.2,-,N/A,,Clear,320,2013-03-29 17:53:00
2:53 PM,51.1,19.9,29,30.27,10.0,WSW,8.1,-,N/A,,Clear,250,2013-03-29 18:53:00
3:53 PM,52.0,19.0,27,30.24,10.0,North,12.7,-,N/A,,Clear,350,2013-03-29 19:53:00
4:53 PM,53.1,18.0,25,30.23,10.0,WNW,6.9,-,N/A,,Clear,300,2013-03-29 20:53:00
5:53 PM,53.1,19.0,26,30.23,10.0,NW,8.1,-,N/A,,Clear,320,2013-03-29 21:53:00
6:53 PM,51.1,17.1,26,30.23,10.0,NW,5.8,-,N/A,,Clear,310,2013-03-29 22:53:00
7:53 PM,48.0,18.0,30,30.23,10.0,NW,3.5,-,N/A,,Clear,310,2013-03-29 23:53:00
8:53 PM,41.0,19.9,43,30.24,10.0,Calm,Calm,-,N/A,,Clear,0,2013-03-30 00:53:00
9:53 PM,37.9,21.9,53,30.25,10.0,Calm,Calm,-,N/A,,Clear,0,2013-03-30 01:53:00
10:53 PM,37.9,21.9,53,30.25,10.0,Calm,Calm,-,N/A,,Clear,0,2013-03-30 02:53:00
11:53 PM,37.0,21.0,52,30.25,10.0,Calm,Calm,-,N/A,,Clear,0,2013-03-30 03:53:00